Torna al catalogo

CZ-4C DEB

AttivoLEO
NORAD 43418·DEBRIS·🇨🇳 China

Lanciato Dec 10, 2014 da Jiuquan Satellite Launch Center

Loading…

Prossimi Passaggi (prossime 24 ore)

TLE

ObsoletoSource: Space-Track

Epoca: Aug 15, 2026, 06:52 UTC

1 43418U 14080G   26227.28627778  .00000044  00000-0  14468-3 0  9993
2 43418  63.3900 170.2355 0386342   9.4088 351.3911 13.45321779552974

Traccia CZ-4C DEB in tempo reale con AllMySat

Download on the App Store